DS-EO (52935 NORAD) Tracking and Keplerian Element Data

This shows tracking and keplerian element data for the satellite.

Feedback or suggestion? Click here.




ElementValue
Catalog52935
NameDS-EO
Epoch Orbit989
Epoch Day247.50116738
Epoch Year2022
RAAN313.7603
Inclination9.9999
Eccentricity0.0006134
Argument of Perigee158.6292
Mean Anonmoly323.9749
Mean Motion14.99684169
Decay Rate1.889E-05
L11 52935U 22072A 22247.50116738 .00001889 00000+0 92613-4 0 9995
L22 52935 9.9999 313.7603 0006134 158.6292 323.9749 14.99684169 9891

Live tracking and technical data element details for DS-EO (NORAD 52935). DS-EO can be tracked NOW for your location showing map with azimuth and elevation plus other details from your city location.

Track the satellite on the map from your city or location and see movement details for azimuth, elevation, latitude, longitude, range, height, and movement on the map or in text.







IsCatalogInMostPopularTable: catalog: 52935, numindb: 9
Update: records affected: 1



GetName: 52935 DS-EO

Hit Count: updated at: Sun, 25 Sep 2022 08:30:27 GMT